GPM-CORE

Last updated on Sat Feb 08 2025 00:02:27 GMT+0000 (Coordinated Universal Time)

1 39574U 14009C 25037.81896585 .00024721 00000+0 54100-3 0 9997 2 39574 64.9784 167.4066 0009604 245.7142 114.2995 15.44053383621299
UTC large
Height (km)
Speed (km/s)
/
Latitude / Longitude
Inclination (degrees)
Orbital Period (minutes)
Azimuth
Elevation
Range (km)
Doppler Factor

Next 0 passes for location: London (51.5072 / 0.1276)

Sorry there are no passes over London.